Location: Dittelbrunn
(50.0738°N, 10.2196°E)
Time: 22:41:32
(UTC+00:00)

Terra - Pass Details

Date: 18 September 2020
Orbit: 701 x 703 km, 98.2° (Epoch: 30 October)

Event Time Altitude Azimuth Distance (km) Brightness Sun altitude
Exits shadow 20:18:54 29° 36° (NE) 1,286 3.1 -26.5°
Drops below altitude 10° 20:21:59 10° 2° (N) 2,184 4.8 -26.9°
Sets 20:24:25 0° 353° (N) 3,107 5.8 -27.2°
